DW6064 Weather Reports


time (UTC)temp
F
wind
direction
speed
knots
gust
knots
rain 1hr
in
rain 24hr
in
rain mn
in
humidity
%
barometer
mb
20260509171538 57 123 1.7 6.1 0.00 0.20 0.20 88 1010.2
20260509171042 57 140 3.5 6.1 0.00 0.20 0.20 88 1010.4
20260509170541 56 143 3.5 6.1 0.00 0.20 0.20 88 1010.4
20260509170041 56 125 3.5 6.1 0.00 0.20 0.20 88 1010.5
20260509165533 56 144 2.6 6.1 0.00 0.20 0.20 89 1010.7
20260509165054 56 127 3.5 6.1 0.00 0.20 0.20 88 1010.7
20260509164525 56 140 3.5 6.1 0.00 0.20 0.20 88 1010.9
20260509164044 56 142 3.5 6.1 0.00 0.20 0.20 88 1010.8
20260509163536 56 157 3.5 6.1 0.00 0.20 0.20 88 1010.7
20260509163057 56 146 3.5 6.1 0.00 0.20 0.20 87 1010.7
20260509162530 56 168 4.3 6.1 0.00 0.20 0.20 88 1010.7
20260509162047 56 146 3.5 5.2 0.00 0.20 0.20 88 1010.7
20260509161544 56 121 3.5 5.2 0.01 0.20 0.20 88 1010.5
20260509161045 56 130 2.6 3.5 0.01 0.20 0.20 89 1010.5
20260509160544 56 46 0.9 2.6 0.02 0.20 0.20 90 1010.5
20260509160104 55 355 0.9 2.6 0.02 0.20 0.20 89 1010.4
20260509155540 55 318 0.0 2.6 0.03 0.20 0.20 89 1010.4
20260509155041 55 318 0.9 2.6 0.04 0.20 0.20 90 1010.3
20260509154535 55 85 0.0 2.6 0.05 0.20 0.20 90 1010.2
20260509154026 55 85 1.7 3.5 0.06 0.20 0.20 90 1010.1
20260509153524 55 85 1.7 3.5 0.07 0.20 0.20 91 1010.2
20260509153044 55 57 0.9 3.5 0.08 0.20 0.20 90 1010.1
20260509152544 55 5 0.0 2.6 0.09 0.20 0.20 90 1010.3
20260509152043 55 355 1.7 2.6 0.10 0.20 0.20 90 1010.3
20260509151540 54 360 0.9 4.3 0.11 0.19 0.19 90 1010.4
20260509151042 54 5 0.0 4.3 0.12 0.19 0.19 88 1010.6
20260509150537 54 13 1.7 2.6 0.12 0.18 0.18 88 1010.7
20260509150033 54 294 0.9 7.0 0.13 0.18 0.18 88 1010.9
20260509145527 54 294 0.9 7.0 0.12 0.17 0.17 87 1011.0
20260509145104 54 279 2.6 6.1 0.12 0.16 0.16 86 1011.1
20260509144540 55 103 0.9 2.6 0.11 0.15 0.15 87 1011.2
20260509144034 55 156 0.9 2.6 0.11 0.14 0.14 86 1011.3
20260509143527 55 156 1.7 2.6 0.10 0.13 0.13 87 1011.3
20260509143050 55 156 1.7 2.6 0.10 0.12 0.12 87 1011.3
20260509142524 55 156 0.9 4.3 0.09 0.11 0.11 86 1011.1
20260509142103 55 156 1.7 4.3 0.09 0.10 0.10 86 1011.1
20260509141542 55 156 2.6 4.3 0.07 0.08 0.08 85 1011.0
20260509141104 55 161 3.5 4.3 0.06 0.07 0.07 84 1011.0
20260509140538 55 147 2.6 3.5 0.05 0.06 0.06 84 1010.9
20260509140036 55 147 2.6 3.5 0.04 0.05 0.05 83 1010.8
20260509135536 56 140 1.7 3.5 0.04 0.05 0.05 83 1010.8
20260509135031 56 132 1.7 4.3 0.03 0.04 0.04 82 1010.7
20260509134548 56 125 2.6 6.1 0.03 0.04 0.04 82 1010.7
20260509134047 56 144 3.5 6.1 0.02 0.03 0.03 82 1010.7
20260509133544 56 134 3.5 6.1 0.02 0.03 0.03 82 1010.7
20260509133044 56 134 3.5 6.1 0.01 0.02 0.02 82 1010.7
20260509132544 56 139 3.5 7.0 0.01 0.02 0.02 81 1010.8
20260509132041 56 147 4.3 7.0 0.00 0.01 0.01 80 1010.7
20260509131535 56 131 3.5 4.3 0.00 0.01 0.01 80 1010.7
20260509131026 56 133 2.6 4.3 0.00 0.01 0.01 78 1010.6
20260509130539 56 161 2.6 4.3 0.00 0.01 0.01 78 1010.7
20260509130035 55 135 0.9 2.6 0.00 0.01 0.01 79 1010.6
20260509125555 55 135 1.7 3.5 0.00 0.01 0.01 79 1010.6
20260509125030 55 135 1.7 3.5 0.00 0.01 0.01 81 1010.6
20260509124548 55 135 1.7 3.5 0.00 0.01 0.01 82 1010.7
20260509124041 54 135 1.7 2.6 0.00 0.01 0.01 81 1010.7
20260509123532 54 160 1.7 4.3 0.01 0.01 0.01 81 1010.8
20260509123025 54 178 2.6 6.1 0.01 0.01 0.01 81 1010.8
20260509122543 54 176 4.3 6.1 0.01 0.01 0.01 82 1010.9
20260509122037 54 161 3.5 4.3 0.01 0.01 0.01 82 1010.9
20260509121531 54 172 1.7 2.6 0.01 0.01 0.01 82 1010.8
20260509121026 53 172 0.9 3.5 0.01 0.01 0.01 82 1010.9
20260509120543 53 172 1.7 6.1 0.01 0.01 0.01 83 1010.8
20260509120104 53 156 3.5 6.1 0.01 0.01 0.01 83 1010.9
20260509115601 53 161 4.3 5.2 0.01 0.01 0.01 83 1011.0
20260509115042 53 355 0.9 2.6 0.01 0.01 0.01 83 1010.8
20260509114541 53 355 0.9 2.6 0.01 0.01 0.01 82 1010.6
20260509114041 53 63 0.9 1.7 0.01 0.01 0.01 82 1010.6
20260509113537 53 121 0.0 1.7 0.00 0.00 0.00 82 1010.7
20260509113032 53 121 0.9 1.7 0.00 0.00 0.00 80 1010.8
20260509112548 53 121 1.7 3.5 0.00 0.00 0.00 79 1010.8
20260509112043 53 121 1.7 3.5 0.00 0.00 0.00 79 1010.8
20260509111539 53 121 0.0 2.6 0.00 0.00 0.00 79 1010.8
20260509111101 53 36 0.0 1.7 0.00 0.00 0.00 80 1010.6
20260509110531 53 36 0.0 4.3 0.00 0.00 0.00 79 1010.6
20260509110027 53 58 2.6 4.3 0.00 0.00 0.00 79 1010.3
20260509105539 53 307 0.0 2.6 0.00 0.00 0.00 79 1010.4
20260509105033 53 307 0.0 1.7 0.00 0.00 0.00 78 1010.3
20260509104528 53 307 0.9 1.7 0.00 0.00 0.00 77 1010.4
20260509104028 53 307 0.0 1.7 0.00 0.00 0.00 77 1010.2
20260509103544 53 307 0.0 1.7 0.00 0.00 0.00 78 1010.1
20260509103038 53 307 0.0 1.7 0.00 0.00 0.00 76 1010.2
20260509102531 53 307 0.9 1.7 0.00 0.00 0.00 76 1010.1
20260509102028 53 307 0.9 3.5 0.00 0.00 0.00 75 1010.0
20260509101543 53 307 1.7 3.5 0.00 0.00 0.00 75 1010.0
20260509101043 53 345 1.7 2.6 0.00 0.00 0.00 75 1009.8
20260509100540 53 345 0.9 1.7 0.00 0.00 0.00 75 1009.7
20260509100035 53 345 0.0 0.0 0.00 0.00 0.00 75 1009.7
20260509095534 53 345 0.0 1.7 0.00 0.00 0.00 74 1009.5
20260509095052 53 345 0.9 1.7 0.00 0.00 0.00 74 1009.6
20260509094526 53 345 0.0 1.7 0.00 0.00 0.00 74 1009.7
20260509094106 53 345 0.0 1.7 0.00 0.00 0.00 74 1009.6
20260509093542 53 345 0.0 1.7 0.00 0.00 0.00 74 1009.5
20260509093041 53 345 0.9 3.5 0.00 0.00 0.00 73 1009.6
20260509092538 53 333 1.7 3.5 0.00 0.00 0.00 73 1009.7
20260509092034 53 338 0.0 3.5 0.00 0.00 0.00 73 1009.6
20260509091551 53 338 0.9 3.5 0.00 0.00 0.00 73 1009.6
20260509091026 53 323 2.6 3.5 0.00 0.00 0.00 73 1009.8
20260509090543 53 323 2.6 3.5 0.00 0.00 0.00 73 1009.7
20260509090044 53 318 1.7 3.5 0.00 0.00 0.00 73 1009.6
20260509085538 53 312 2.6 3.5 0.00 0.00 0.00 73 1009.7
20260509085032 53 310 0.0 0.0 0.00 0.00 0.00 74 1009.6
20260509084548 53 309 0.0 0.0 0.00 0.00 0.00 74 1009.7
20260509084045 53 310 0.0 0.0 0.00 0.00 0.00 73 1009.7
20260509083538 54 310 0.0 0.0 0.00 0.00 0.00 73 1009.7
20260509083057 54 310 0.0 0.0 0.00 0.00 0.00 73 1009.6
20260509082530 54 310 0.0 0.0 0.00 0.00 0.00 73 1009.8
20260509082051 54 310 0.0 1.7 0.00 0.00 0.00 73 1009.9
20260509081548 54 310 0.0 1.7 0.00 0.00 0.00 73 1009.9
20260509081047 54 310 1.7 2.6 0.00 0.00 0.00 72 1009.9
20260509080605 54 310 1.7 3.5 0.00 0.00 0.00 71 1009.9
20260509080037 54 310 1.7 3.5 0.00 0.00 0.00 72 1009.9
20260509075531 54 20 1.7 2.6 0.00 0.00 0.00 72 1009.9
20260509075025 54 57 0.9 2.6 0.00 0.00 0.00 72 1009.8
20260509074536 54 57 0.0 0.9 0.00 0.00 0.00 72 1009.7
20260509074039 54 57 0.0 0.9 0.00 0.00 0.00 72 1009.7
20260509073531 54 57 0.0 0.9 0.00 0.00 0.00 71 1009.7
20260509073027 54 57 0.0 1.7 0.00 0.00 0.00 71 1009.9
20260509072544 54 57 0.0 2.6 0.00 0.00 0.00 71 1009.9
20260509072043 54 57 0.9 3.5 0.00 0.00 0.00 71 1009.8
20260509071541 54 57 0.9 4.3 0.00 0.00 0.00 70 1010.0
20260509071041 54 62 2.6 4.3 0.00 0.00 0.00 71 1010.0
20260509070540 54 55 1.7 4.3 0.00 0.00 0.00 71 1010.0
20260509070039 54 53 2.6 4.3 0.00 0.00 0.00 70 1010.0
20260509065537 54 32 1.7 6.1 0.00 0.00 0.00 70 1010.1
20260509065028 54 59 2.6 6.1 0.00 0.00 0.00 70 1010.2
20260509064547 54 52 2.6 5.2 0.00 0.00 0.00 70 1010.2
20260509064105 54 54 2.6 5.2 0.00 0.00 0.00 70 1010.2
20260509063542 54 32 1.7 5.2 0.00 0.00 0.00 70 1010.3
20260509063102 54 37 2.6 5.2 0.00 0.00 0.00 70 1010.3
20260509062536 54 25 2.6 5.2 0.00 0.00 0.00 69 1010.3
20260509062031 55 5 2.6 5.2 0.00 0.00 0.00 68 1010.4
20260509061524 55 355 2.6 4.3 0.00 0.00 0.00 68 1010.3
20260509061042 55 9 1.7 4.3 0.00 0.00 0.00 69 1010.4
20260509060539 55 340 2.6 4.3 0.00 0.00 0.00 68 1010.6
20260509060034 55 334 2.6 3.5 0.00 0.00 0.00 68 1010.6
20260509055526 55 355 0.9 1.7 0.00 0.00 0.00 68 1010.5
20260509055025 55 355 0.9 1.7 0.00 0.00 0.00 68 1010.6
20260509054600 55 355 0.0 1.7 0.00 0.00 0.00 67 1010.5
20260509054041 55 355 0.0 1.7 0.00 0.00 0.00 68 1010.5
20260509053532 55 355 0.0 1.7 0.00 0.00 0.00 67 1010.4
20260509053027 55 355 0.9 1.7 0.00 0.00 0.00 67 1010.5
20260509052538 56 355 0.0 2.6 0.00 0.00 0.00 68 1010.6
20260509052034 55 355 0.0 2.6 0.00 0.00 0.00 67 1010.6
20260509051526 55 355 0.9 3.5 0.00 0.00 0.00 67 1010.5
20260509051044 55 348 0.9 3.5 0.00 0.00 0.00 66 1010.5
20260509050541 55 355 1.7 3.5 0.00 0.00 0.00 67 1010.6
20260509050038 55 355 1.7 3.5 0.00 0.00 0.00 68 1010.5
20260509045529 55 341 1.7 3.5 0.00 0.00 0.00 68 1010.6
20260509045044 55 331 1.7 3.5 0.00 0.00 0.00 68 1010.6
20260509044532 55 298 1.7 3.5 0.00 0.00 0.00 68 1010.6
20260509044026 56 351 0.9 2.6 0.00 0.00 0.00 68 1010.7
20260509043542 56 128 0.9 2.6 0.00 0.00 0.00 68 1010.7
20260509043037 56 355 0.9 2.6 0.00 0.00 0.00 68 1010.8
20260509042531 56 355 0.9 2.6 0.00 0.00 0.00 68 1010.8
20260509042026 56 355 0.0 2.6 0.00 0.00 0.00 67 1010.8
20260509041603 56 355 0.0 0.0 0.00 0.00 0.00 67 1011.0
20260509041037 56 355 0.0 0.0 0.00 0.00 0.00 67 1011.0
20260509040541 56 355 0.0 0.0 0.00 0.00 0.00 68 1011.0
20260509040035 56 355 0.0 2.6 0.00 0.00 0.00 67 1010.9
20260509035524 56 355 0.0 2.6 0.00 0.00 0.00 66 1011.0
20260509035045 56 355 1.7 3.5 0.00 0.00 0.00 66 1011.1
20260509034538 56 330 1.7 3.5 0.00 0.00 0.00 66 1011.0
20260509034038 56 69 0.9 1.7 0.00 0.00 0.00 66 1010.9
20260509033556 56 68 0.0 1.7 0.00 0.00 0.00 66 1011.0
20260509033054 56 68 0.9 2.6 0.00 0.00 0.00 66 1010.9
20260509032526 57 68 1.7 2.6 0.00 0.00 0.00 66 1011.0
20260509032043 57 68 1.7 2.6 0.00 0.00 0.00 65 1011.0
20260509031541 57 68 1.7 2.6 0.00 0.00 0.00 63 1011.1
20260509031042 57 68 0.0 0.9 0.00 0.00 0.00 64 1011.2
20260509030540 57 68 0.0 0.9 0.00 0.00 0.00 64 1011.4
20260509030034 57 68 0.0 1.7 0.00 0.00 0.00 63 1011.4
20260509025525 57 68 0.0 2.6 0.00 0.00 0.00 62 1011.6
20260509025044 57 124 1.7 2.6 0.00 0.00 0.00 62 1011.4
20260509024600 58 124 0.0 1.7 0.00 0.00 0.00 63 1011.6
20260509024058 58 124 0.0 1.7 0.00 0.00 0.00 62 1011.3
20260509023528 58 124 0.9 1.7 0.00 0.00 0.00 61 1011.3
20260509023102 58 124 0.9 1.7 0.00 0.00 0.00 60 1011.3
20260509022554 58 124 0.0 1.7 0.00 0.00 0.00 60 1011.4
20260509022026 58 124 0.0 2.6 0.00 0.00 0.00 59 1011.6
20260509021532 58 124 0.0 4.3 0.00 0.00 0.00 59 1011.4
20260509021024 58 123 2.6 6.1 0.00 0.00 0.00 59 1011.5
20260509020041 58 129 3.5 8.7 0.00 0.00 0.00 60 1011.5
20260509015535 58 145 4.3 8.7 0.00 0.00 0.00 60 1011.4
20260509015031 58 149 5.2 7.0 0.00 0.00 0.00 59 1011.2
20260509014544 58 132 2.6 7.0 0.00 0.00 0.00 60 1011.1
20260509014041 58 136 3.5 7.0 0.00 0.00 0.00 59 1011.2
20260509013540 58 134 2.6 4.3 0.00 0.00 0.00 59 1011.2
20260509013034 59 134 1.7 2.6 0.00 0.00 0.00 59 1011.1
20260509012527 59 125 0.0 8.7 0.00 0.00 0.00 59 1011.1
20260509012044 59 125 1.7 8.7 0.00 0.00 0.00 58 1011.1
20260509011602 59 146 3.5 6.1 0.00 0.00 0.00 60 1011.2
20260509011035 59 24 1.7 2.6 0.00 0.00 0.00 58 1011.0
20260509010525 59 24 1.7 2.6 0.00 0.00 0.00 56 1010.9
20260509010043 60 298 0.9 2.6 0.00 0.00 0.00 55 1011.1
20260509005600 60 298 0.0 0.9 0.00 0.00 0.00 55 1011.0
20260509005032 60 298 0.0 1.7 0.00 0.00 0.00 57 1010.9
20260509004525 60 298 0.0 1.7 0.00 0.00 0.00 55 1010.9
20260509004104 60 298 0.9 1.7 0.00 0.00 0.00 54 1011.0
20260509003540 60 298 0.9 1.7 0.00 0.00 0.00 53 1011.0
20260509003030 60 298 0.0 0.9 0.00 0.00 0.00 52 1011.0
20260509002603 61 298 0.0 0.9 0.00 0.00 0.00 54 1011.1
20260509002043 61 298 0.0 1.7 0.00 0.00 0.00 51 1011.0
20260509001538 61 298 0.9 1.7 0.00 0.00 0.00 52 1011.0
20260509001039 61 298 0.0 0.9 0.00 0.00 0.00 51 1011.0
20260509000531 62 298 0.0 2.6 0.00 0.00 0.00 51 1010.9
20260509000026 62 298 0.9 2.6 0.00 0.00 0.00 51 1011.0
20260508235536 62 295 0.0 2.6 0.00 0.00 0.00 50 1010.9
20260508235052 63 295 0.9 3.5 0.00 0.00 0.00 48 1010.9
20260508234524 63 290 1.7 3.5 0.00 0.00 0.00 46 1011.0
20260508234038 63 283 1.7 3.5 0.00 0.00 0.00 45 1010.9
20260508233556 64 280 1.7 4.3 0.00 0.00 0.00 46 1010.8
20260508233029 64 301 1.7 7.0 0.00 0.00 0.00 45 1010.7
20260508232603 64 258 2.6 7.8 0.00 0.00 0.00 44 1010.6
20260508232040 64 257 2.6 7.8 0.00 0.00 0.00 43 1010.6
20260508231534 64 279 4.3 7.8 0.00 0.00 0.00 44 1010.6
20260508231028 64 273 3.5 7.8 0.00 0.00 0.00 44 1010.5
20260508230558 64 292 4.3 7.8 0.00 0.00 0.00 43 1010.6
20260508230032 64 259 5.2 7.8 0.00 0.00 0.00 43 1010.7
20260508225524 64 271 3.5 7.8 0.00 0.00 0.00 43 1010.7
20260508225044 64 296 1.7 10.4 0.00 0.00 0.00 44 1010.8
20260508224537 64 277 4.3 10.4 0.00 0.00 0.00 43 1010.7
20260508224057 64 294 4.3 9.6 0.00 0.00 0.00 43 1010.8
20260508223553 64 271 2.6 15.6 0.00 0.00 0.00 42 1010.9
20260508223027 64 290 8.7 15.6 0.00 0.00 0.00 42 1011.0
20260508222542 64 281 7.8 13.9 0.00 0.00 0.00 42 1010.9
20260508222042 64 280 7.8 14.8 0.00 0.00 0.00 42 1010.9
20260508221533 64 273 7.0 15.6 0.00 0.00 0.00 42 1010.9
20260508221031 64 231 7.8 15.6 0.00 0.00 0.00 41 1010.8
20260508220524 64 256 7.0 14.8 0.00 0.00 0.00 41 1010.8
20260508220105 64 255 9.6 17.4 0.00 0.00 0.00 41 1010.8
20260508215557 64 236 7.0 17.4 0.00 0.00 0.00 40 1010.8
20260508215030 65 247 7.8 16.5 0.00 0.00 0.00 40 1010.8
20260508214528 65 281 9.6 17.4 0.00 0.00 0.00 40 1010.7
20260508214027 65 256 7.8 17.4 0.00 0.00 0.00 40 1010.7
20260508213559 65 213 10.4 15.6 0.00 0.00 0.00 39 1010.7
20260508213041 65 228 7.8 15.6 0.00 0.00 0.00 39 1010.6
20260508212531 65 248 7.8 15.6 0.00 0.00 0.00 40 1010.7
20260508212026 65 240 6.1 15.6 0.00 0.00 0.00 39 1010.7
20260508211541 65 240 7.0 15.6 0.00 0.00 0.00 39 1010.6
20260508211037 65 221 7.0 15.6 0.00 0.00 0.00 39 1010.6
20260508210531 65 245 7.0 13.0 0.00 0.00 0.00 39 1010.8
20260508210026 65 250 6.1 11.3 0.00 0.00 0.00 39 1010.8
20260508205544 65 256 4.3 11.3 0.00 0.00 0.00 40 1010.6
20260508205038 65 238 6.1 11.3 0.00 0.00 0.00 39 1010.6
20260508204535 65 237 5.2 13.9 0.00 0.00 0.00 38 1010.7
20260508204030 65 254 7.8 15.6 0.00 0.00 0.00 37 1010.7
20260508203547 65 224 7.8 20.0 0.00 0.00 0.00 37 1010.8
20260508203103 66 262 9.6 20.0 0.00 0.00 0.00 36 1010.8
20260508202538 66 260 8.7 15.6 0.00 0.00 0.00 36 1010.8
20260508202032 66 251 7.0 15.6 0.00 0.00 0.00 37 1010.8
20260508201525 66 229 5.2 14.8 0.00 0.00 0.00 37 1010.7
20260508201106 66 219 9.6 14.8 0.00 0.00 0.00 35 1010.7
20260508200542 66 271 6.1 13.0 0.00 0.00 0.00 37 1010.8
20260508200040 66 211 5.2 13.9 0.00 0.00 0.00 37 1010.8
20260508195540 66 243 6.1 11.3 0.00 0.00 0.00 38 1010.8
20260508195035 66 248 5.2 11.3 0.00 0.00 0.00 38 1010.9
20260508194531 66 243 5.2 15.6 0.00 0.00 0.00 36 1011.0
20260508194026 66 244 9.6 15.6 0.00 0.00 0.00 34 1011.0
20260508193543 66 266 7.8 18.2 0.00 0.00 0.00 35 1011.0
20260508193101 66 296 8.7 21.7 0.00 0.00 0.00 34 1010.8
20260508192534 66 223 13.0 21.7 0.00 0.00 0.00 33 1011.0
20260508192028 66 232 7.8 14.8 0.00 0.00 0.00 36 1011.0
20260508191542 67 257 5.2 12.2 0.00 0.00 0.00 36 1011.0
20260508191042 67 217 5.2 12.2 0.00 0.00 0.00 35 1010.9
20260508190534 68 245 5.2 11.3 0.00 0.00 0.00 35 1010.8
20260508190030 68 232 4.3 12.2 0.00 0.00 0.00 35 1010.9
20260508185542 68 244 6.1 15.6 0.00 0.00 0.00 35 1011.0
20260508185041 69 274 5.2 15.6 0.00 0.00 0.00 34 1010.9
20260508184532 68 225 7.8 14.8 0.00 0.00 0.00 34 1011.1
20260508184028 69 265 3.5 14.8 0.00 0.00 0.00 35 1011.0
20260508183603 69 217 7.0 14.8 0.00 0.00 0.00 33 1011.1
20260508183038 69 245 4.3 13.9 0.00 0.00 0.00 34 1011.2
20260508182526 69 159 5.2 16.5 0.00 0.00 0.00 35 1011.5
20260508182105 70 232 7.0 19.1 0.00 0.00 0.00 33 1011.4
20260508181539 70 249 8.7 19.1 0.00 0.00 0.00 35 1011.5
20260508181032 70 246 5.2 14.8 0.00 0.00 0.00 35 1011.4
20260508180525 69 249 5.2 13.9 0.00 0.00 0.00 38 1011.5
20260508180045 68 238 7.0 13.9 0.00 0.00 0.00 39 1011.6
20260508175536 67 229 4.3 16.5 0.00 0.00 0.00 39 1011.6
20260508175034 67 231 3.5 16.5 0.00 0.00 0.00 39 1011.7
20260508174552 67 182 6.1 13.9 0.00 0.00 0.00 37 1011.7
20260508174050 67 297 4.3 11.3 0.00 0.00 0.00 39 1011.8
20260508173541 66 237 4.3 11.3 0.00 0.00 0.00 40 1011.9
20260508173034 66 234 5.2 14.8 0.00 0.00 0.00 37 1011.9
20260508172527 66 191 6.1 16.5 0.00 0.00 0.00 39 1012.0
20260508172043 67 248 6.1 12.2 0.00 0.00 0.00 38 1011.9